www.pogodaiklimat.ru

Погода и климат >> Архив погоды >> Аргентина >> Лабоулайе


ПОГОДА в Лабоулайе

  • Прогноз погоды в Лабоулайе
  • Монитор погоды в Лабоулайе

АРХИВ ПОГОДЫ в Лабоулайе

Время (UTC), дата Ветер
(напр.,м/с)
 
Видим.   Явления Облачность Т
(С)
Тd
(С)
f
(%)
Тe
(С)
Тes
(С)
Комфортность P
(гПа)
Po
(гПа)
Тmin
(С)
Tmax
(С)
R
(мм)
R24
(мм)
S
(см)
09 19.03 ЮВ 13 2000 м гроза, ливневой дождь 10/1 1200 м
[Cb cap As op]
+14.4 +14.4 100 +11 +11 1014.2 998.2
12 19.03 ЮВ 10 10 км гроза без осадков 8/4 900 м
[Cb cap As op]
+13.9 +12.6 92 +11 +11 1016.6 1000.5 +12.5 +22.9 4
15 19.03 ЮВ 4 10 км {гроза} 9/4 900 м
[Sc As op]
+15.9 +11.3 74 +15 +17 1020.2 1004.0
18 19.03 штиль 0 10 км {гроза} 8/8 600 м
[Sc]
+19.4 +11.5 60 +20 +24 1019.5 1003.3
21 19.03 штиль 0 12 км 8/8 900 м
[Sc]
+19.9 +11.1 57 +21 +22 комфорт 1019.4 1003.2
00 20.03 штиль 0 10 км 8/8 900 м
[Sc]
+16.3 +12.2 77 +16 +16 1021.6 1005.2 +13.9 +20.0
03 20.03 ЮВ 2 10 км 3/3 450 м
[Sc]
+11.1 +9.3 89 +10 +10 1023.8 1007.3
06 20.03 штиль 0 <100 м ясно +8.9 +7.4 90 +8 +8 1025.1 1008.6
09 20.03 штиль 0 8000 м дымка ясно +7.0 +6.6 97 +6 +6 1024.8 1008.2
12 20.03 Ю 2 15 км ясно +9.9 +8.3 90 +8 +11 1025.7 1009.2 +7.0 +16.3
15 20.03 ЮВ 2 20 км 3/3 600 м
[Cu hum]
+18.1 +7.6 50 +19 +28 1025.8 1009.3
18 20.03 ЮВ 4 10 км 5/5 900 м
[Sc Ci]
+19.7 +6.0 41 +20 +24 1024.5 1008.0
21 20.03 ЮВ 1 10 км 6/4 900 м
[Sc Ci]
+18.9 +5.9 43 +20 +21 1023.2 1006.6
00 21.03 штиль 0 10 км 1/0
[Ci]
+12.2 +8.0 75 +12 +12 1024.3 1007.6 +9.9 +19.7
03 21.03 штиль 0 10 км ясно +8.7 +5.9 83 +8 +8 1025.0 1008.5
06 21.03 штиль 0 10 км ясно +6.9 +4.9 87 +6 +6 1023.9 1007.4
09 21.03 штиль 0 10 км 1/0
[Ci]
+5.5 +3.9 89 +4 +4 1022.9 1006.4
12 21.03 СВ 2 10 км 9/0
[Cs]
+9.5 +6.7 83 +8 +10 1022.9 1006.2 +5.3 +12.2
15 21.03 СВ 8 10 км 9/0
[Ac As Cs]
+18.5 +6.9 47 +18 +19 1022.1 1005.6
18 21.03 С 8 10 км 9/0
[Ac As Cs]
+20.9 +9.2 47 +22 +23 комфорт 1019.2 1002.8
21 21.03 С 6 10 км 3/0
[Ci]
+21.3 +7.3 40 +22 +23 комфорт 1016.9 1000.5
00 22.03 штиль 0 10 км 1/0
[Ci]
+13.1 +9.4 78 +13 +13 1017.3 1000.8 +9.5 +22.4
03 22.03 штиль 0 10 км 6/0
[Ac As Cs]
+13.3 +9.6 78 +13 +13 1017.8 1001.4
06 22.03 штиль 0 10 км 6/0
[Ac As Cs]
+11.7 +8.5 81 +11 +11 1018.0 1001.7
09 22.03 штиль 0 10 км 6/0
[Ac As]
+9.5 +8.1 91 +9 +9 1017.8 1001.4
12 22.03 С 3 9000 м дымка 1/0
[Ci]
+12.3 +9.6 84 +11 +13 1018.5 1002.0 +7.9 +13.9
15 22.03 С 7 10 км 1/0
[Ci]
+22.2 +11.4 50 +24 +28 комфорт 1018.3 1002.1
18 22.03 С 7 10 км 5/5 900 м
[Sc]
+25.8 +11.8 42 +27 +29 жарко 1016.3 1000.2
21 22.03 С 5 10 км 6/6 900 м
[Sc]
+24.7 +12.3 46 +26 +27 жарко 1014.5 998.4
00 23.03 штиль 0 8000 м дымка ясно +15.5 +12.6 83 +15 +15 1015.0 998.6 +12.3 +26.1
03 23.03 штиль 0 8000 м дымка ясно +13.7 +11.7 88 +13 +13 1016.1 1000.0
06 23.03 штиль 0 8000 м дымка ясно +12.5 +10.8 89 +12 +12 1015.5 999.4
09 23.03 СВ 1 8000 м дымка ясно +11.3 +9.9 91 +11 +11 1014.5 998.4
12 23.03 С 1 8000 м дымка 8/0
[Cs]
+14.4 +12.0 85 +15 +17 1014.9 998.6 +10.3 +15.5
15 23.03 С 6 10 км 8/0
[Cs]
+23.8 +14.7 57 +27 +31 жарко 1014.1 998.0
18 23.03 С 6 10 км 5/0
[Cs]
+28.0 +14.0 42 +30 +34 жарко 1011.8 995.8
21 23.03 С 1 10 км ясно +27.8 +14.7 45 +30 +32 жарко 1010.8 994.8
00 24.03 штиль 0 10 км ясно +20.3 +16.2 77 +23 +23 комфорт 1012.0 995.8 +14.4 +29.0
03 24.03 штиль 0 8000 м дымка ясно +18.7 +15.7 83 +20 +20 1013.8 997.8
06 24.03 С 6 10 км ясно +14.8 +11.7 82 +13 +13 1016.6 1000.6
09 24.03 ЮЗ 4 10 км ясно +12.2 +10.9 92 +10 +10 1018.3 1002.2
12 24.03 Ю 2 10 км ясно +11.9 +9.8 87 +11 +13 1019.8 1003.4 +10.8 +20.3
15 24.03 Ю 5 10 км 3/0
[Ci]
+18.9 +5.9 43 +19 +25 1021.6 1005.4
18 24.03 Ю 5 10 км 4/0
[Ci]
+21.9 +6.6 37 +23 +28 комфорт 1020.2 1004.0
21 24.03 Ю 2 10 км 4/0
[Ci]
+21.4 +6.1 37 +22 +23 комфорт 1019.1 1002.8
00 25.03 штиль 0 10 км 3/0
[Ac As Ci]
+15.5 +8.7 64 +15 +15 1019.9 1003.4 +11.9 +22.5
03 25.03 штиль 0 10 км 4/0
[Ac As]
+12.4 +8.4 77 +12 +12 1020.9 1004.5
06 25.03 штиль 0 10 км 6/0
[Ac As]
+12.3 +8.7 79 +12 +12 1020.7 1004.5
09 25.03 штиль 0 10 км 6/0
[Ac As]
+10.9 +7.8 81 +10 +10 1020.8 1004.5
12 25.03 штиль 0 10 км 8/0
[Ac As Cs]
+11.3 +8.3 82 +11 +13 1022.7 1006.2 +9.2 +15.5
15 25.03 штиль 0 10 км 8/0
[Ac As Cs]
+17.8 +8.6 55 +18 +27 1023.0 1006.6
18 25.03 ЮВ 2 10 км 1/0
[Ci]
+21.1 +4.8 34 +21 +32 комфорт 1020.5 1004.2
21 25.03 ЮВ 1 10 км 5/0
[Ac As]
+20.8 +5.1 36 +23 +24 комфорт 1020.1 1003.7
00 26.03 штиль 0 10 км 8/0
[Ac As]
+15.4 +8.8 65 +15 +15 1022.5 1006.0 +11.3 +21.5
03 26.03 штиль 0 10 км 4/0
[Ac As]
+10.5 +7.8 83 +10 +10 1024.1 1007.6
06 26.03 штиль 0 10 км 4/0
[Ac As]
+9.7 +6.5 80 +9 +9 1024.1 1007.7

 

Местоположение метеостанции Лабоулайе (Аргентина): широта -34.13 долгота -63.36 высота над уровнем моря 137 м.

В архиве по умолчанию представлена погода в Лабоулайе за последнюю неделю. Архивные данные за месяц целиком и за предыдущие месяцы, начиная с января 2011 года, Вы можете получить, выбрав интересующий диапазон дат из раскрывающегося списка и нажав кнопку "Ввод!".


*Определитесь, кто Вы:
робот инопланетянин человек

Внимание! Время в таблицах - всемирное. Для получения местного времени необходимо прибавить поправку, которая равна -3 ч.

Смотрите также архив погоды в соседних городах и на ближайших метеорологических станциях:

Погода в Рио-Куарто (Аргентина) (143 км)
Погода в Хенераль Пико (Аргентина) (178 км)
Погода в Вилья Рейнольдс (Аргентина) (192 км)
Погода в Маркос Хуарес (Аргентина) (195 км)
Погода в Хунине (Аргентина) (230 км)
Погода в Росарио (Аргентина) (275 км)
Погода в Пиларе (Аргентина) (279 км)
Погода в Санкт-Розе (Аргентина) (282 км)
Погода в Сан-Луисе (Аргентина) (293 км)
Погода в Вилла Долорес (Аргентина) (293 км)

Пояснения к столбцам:

Ветер - указаны скорость ветра в м/с - средняя за 10 мин, порывы в срок и между сроками (в фигурных скобках) и направление, откуда дует ветер: С - северный, СВ - северо-восточный, В - восточный, ЮВ - юго-восточный, Ю - южный, ЮЗ - юго-западный, З - западный, СЗ - северо-западный.
Видимость - горизонтальная дальность видимости в метрах или километрах. При видимости от 1 до 10 км при отсутствии осадков обычно наблюдается дымка, при ухудшении видимости до 1 км и менее - туман. В сухую погоду видимость может ухудшаться дымом, пылью или мглою.
Явления - указаны атмосферные явления, наблюдавшиеся в срок или в последний час перед сроком; фигурными скобками обозначены явления, наблюдавшиеся между сроками (за 1-3 часа до срока); квадратными скобками обозначены град или гололедные отложения с указанием их диаметра в мм.
Облачность - указаны через наклонную черту общая и нижняя облачность в баллах и высота нижней границы облаков в метрах; квадратными скобками обозначены формы облаков: Ci - перистые, Cs - перисто-слоистые, Cc - перисто-кучевые, Ac - высококучевые, As - высокослоистые, Sc - слоисто-кучевые, Ns - слоисто-дождевые, Cu - кучевые, Cb - кучево-дождевые. Подробнее классификацию облаков см. в Атласе облаков (PDF).
T - Температура воздуха - температура, измеренная на высоте 2 м над землей.
Td - Температура точки росы - температура, при понижении до которой содержащийся в воздухе водяной пар достигнет насыщения.
f - Относительная влажность воздуха - влажноcть воздуха, измеренная на высоте 2 м над землей.
Te - Эффективная температура - температура, которую ощущает одетый по сезону человек в тени. Характеристика душности погоды. При расчете учитывается влияние влажности воздуха и скорости ветра на теплоощущения человека.
Tes - Эффективная температура на солнце - температура, которую ощущает человек, с поправкой на солнечный нагрев. Характеристика знойности погоды. Зависит от высоты солнца над горизонтом, облачности и скорости ветра. Ночью, в пасмурную погоду, а также при ветре 12 м/с и более поправка равна нулю.
P - Атмосферное давление - приведенное к уровню моря атмосферное давление.
Po - Атмосферное давление - измеренное на уровне метеостанции атмосферное давление.
Tmin - Минимальная температура - минимум температуры воздуха на высоте 2 м над землей.
Tmax - Максимальная температура - максимум температуры воздуха на высоте 2 м над землей.
R - Количество осадков - Количество выпавших осадков за период времени, мм. При наведении курсора мыши на число - период времени, за который выпало указанное количество осадков.
R24 - Количество осадков - Количество выпавших осадков за 24 часа, мм.
S - Снежный покров - Высота снежного покрова, см. При наведении курсора мыши на число - состояние снежного покрова и степень покрытия местности в баллах.